Regional Weather Roundup
Issued by NWS

Home | Current Version | Previous Version | Text Only | Print | Product List | Glossary Off
Versions: 1 2 3 4 5 6 7 8 9 10 11 12 13 14 15 16 17 18 19 20 21 22 23 24 25 26 27 28 29 30 31 32 33 34 35 36 37 38 39 40 41 42 43 44 45 46 47 48 49 50

000
ASUS45 KSLC 211710
RWRUT

UTAH REGIONAL WEATHER ROUNDUP
NATIONAL WEATHER SERVICE SALT LAKE CITY UT
1000 AM MST SUN DEC 21 2014

UTZ001>011-023>025-211800-

NORTHERN UTAH

CITY           SKY/WX    TMP DP  RH WIND       PRES   REMARKS
BRIGHAM CITY   CLOUDY    42  38  83 S17       29.95S
HILL AFB       FLURRIES  37  37 100 S16       29.96F WCI  28
LOGAN          LGT RAIN  41  36  82 CALM      29.90S
OGDEN          LGT RAIN  39  38  96 S14       29.96S WCI  31
PROVO AIRPORT  CLOUDY    39  36  87 NE7       30.05R WCI  34
SALT LAKE CITY RAIN      39  37  92 SE13      29.99R WCI  31
VERNAL         CLOUDY    30  27  88 CALM      29.95S
WENDOVER       CLOUDY    48  37  66 NW6       29.97R
HEBER CITY     MIX PCPN  32  32 100 E5        29.99R WCI  27
WEST JORDAN    CLOUDY    37  37 100 S17       30.00R WCI  28

$$

UTZ012>022-026-027-211800-

SOUTHERN/CENTRAL UTAH

CITY           SKY/WX    TMP DP  RH WIND       PRES   REMARKS
BLANDING       CLOUDY    31  31 100 NE3       30.16R
BRYCE CANYON   SUNNY     41  29  62 W16       30.11R
CEDAR CITY     PTSUNNY   44  32  62 SE5       30.10R
DELTA          CLOUDY    40  32  73 S13G18    30.06R WCI  33
MILFORD        CLOUDY    41  31  67 SW18      30.07R
MOAB/CYNLANDS  CLOUDY    36  32  85 CALM      30.03F
PRICE          CLOUDY    31  26  82 W3        30.04R
ST GEORGE      CLOUDY    37  30  75 CALM      30.18S
KANAB          MOSUNNY   36  32  87 CALM      30.19R

$$

REGIONAL REPORTS     COLORADO/ARIZONA

CITY           SKY/WX    TMP DP  RH WIND       PRES   REMARKS
CRAIG, CO      CLOUDY    34  28  79 W15       29.86F WCI  24
GRAND JUNCTION SNOW      32  32 100 CALM      30.03F VSB 1/2
RIFLE          SNOW      31  29  92 CALM      29.99F VSB 1/2
MONTROSE       LGT SNOW  30  29  96 SW3       30.07R VSB 3/4
CORTEZ         MOSUNNY   36  29  75 N5        30.10R WCI  32
PAGE, AZ       CLOUDY    39  30  70 NE5       30.10S
GRAND CANYON   PTSUNNY   34  27  75 CALM      30.14R
KINGMAN        PTSUNNY   42  36  79 CALM      30.16R
FLAGSTAFF      PTSUNNY   44  27  51 VRB7      30.13R

$$

REGIONAL REPORTS    NEVADA/IDAHO/WYOMING

CITY           SKY/WX    TMP DP  RH WIND       PRES   REMARKS
LAS VEGAS, NV  CLOUDY    48  37  65 SW5       30.12S
ELY            CLOUDY    39  37  92 CALM      30.15R
ELKO           CLOUDY    47  39  74 SW13      30.06R
POCATELLO, ID  CLOUDY    44  42  93 SW26G37   29.81S
BURLEY         LGT RAIN  48  42  80 W25G35    29.85R
EVANSTON, WY   LGT SNOW  33  32  96 SW25G32   29.89S VSB 3/4 WCI  20
ROCK SPRINGS   CLOUDY    35  30  82 W31       29.77F WCI  22
KEMMERER       LGT SNOW  32  32 100 SW31G40   29.81F WCI  17

$$



USA.gov is the U.S. government's official web portal to all federal, state and local government web resources and services.